Regional Weather Roundup
Issued by NWS

Home | Current Version | Previous Version | Text Only | Print | Product List | Glossary Off
Versions: 1 2 3 4 5 6 7 8 9 10 11 12 13 14 15 16 17 18 19 20 21 22 23 24 25 26 27 28 29 30 31 32 33 34 35 36 37 38 39 40 41 42 43 44 45 46 47 48 49 50

760
ASUS45 KBOI 101310
RWRID

IDAHO REGIONAL WEATHER ROUNDUP
NATIONAL WEATHER SERVICE BOISE ID
600 AM MST SUN DEC 10 2017

NOTE: "FAIR" INDICATES FEW OR NO CLOUDS BELOW 12000 FEET
WITH NO SIGNIFICANT WEATHER AND/OR OBSTRUCTIONS TO VISIBILITY

IDZ012-014-101400-
SOUTHWEST IDAHO


CITY           SKY/WX    TMP DP  RH WIND       PRES   REMARKS
BOISE          CLOUDY    26  20  77 E7        30.73S WCI  18
CALDWELL       NOT AVBL
MOUNTAIN HOME  CLOUDY    24  24 100 E6        30.72S WCI  17
$$

IDZ016-017-101400-
SOUTHCENTRAL IDAHO


CITY           SKY/WX    TMP DP  RH WIND       PRES   REMARKS
BURLEY         FOG       17  14  88 NE5       30.63F VSB 1/2 WCI  10
JEROME         SNOW      21  15  78 E6        30.66S VSB 1/2 WCI  13
TWIN FALLS     FOG       20  18  92 CALM      30.64S VSB 1/4
$$

IDZ019>023-101400-
SOUTHEAST IDAHO


CITY           SKY/WX    TMP DP  RH WIND       PRES   REMARKS
IDAHO FALLS    CLOUDY     7   5  91 N3        30.64F
POCATELLO      FOG        9   4  80 CALM      30.65F VSB 1
REXBURG        CLOUDY     7   4  87 CALM      30.63F
$$

IDZ006-010-011-018-031-032-101400-
CENTRAL IDAHO MOUNTAINS


CITY           SKY/WX    TMP DP  RH WIND       PRES   REMARKS
MCCALL         FOG        5   3  91 CALM      30.58S VSB 1/4
HAILEY         CLEAR     19  10  68 N3        30.61S
STANLEY          N/A      0  -6  76 CALM      30.68R
SALMON         CLOUDY    16  14  92 E5        30.78S WCI   9
CHALLIS        CLEAR      4   0  83 S3        30.70S
$$

IDZ002-004-006-007-026-101400-
NORTHERN IDAHO


CITY           SKY/WX    TMP DP  RH WIND       PRES   REMARKS
LEWISTON       CLOUDY    26  25  96 SE3       30.69R
LOWELL           N/A     22  21  96 NW5       30.71F WCI  16
COEUR D`ALENE  CLOUDY    27  24  89 E7        30.63F WCI  19
MULLAN PASS    CLEAR     36   6  28 SW7       30.48F WCI  30
$$




USA.gov is the U.S. government's official web portal to all federal, state and local government web resources and services.